Regional Weather Roundup
Issued by NWS

Home | Current Version | Previous Version | Text Only | Print | Product List | Glossary On
Versions: 1 2 3 4 5 6 7 8 9 10 11 12 13 14 15 16 17 18 19 20 21 22 23 24 25 26 27 28 29 30 31 32 33 34 35 36 37 38 39 40 41 42 43 44 45 46 47 48 49 50
641
ASUS43 KTOP 270908
RWRKS

WEATHER ROUNDUP FOR KANSAS
NATIONAL WEATHER SERVICE GOODLAND KS
300 AM CST MON FEB 27 2017

NOTE:  "FAIR" INDICATES FEW OR NO CLOUDS BELOW 12,000 FEET WITH NO
SIGNIFICANT WEATHER AND/OR OBSTRUCTIONS TO VISIBILITY.

KSZ001>006-013>018-027>032-041>047-271000-
NORTHWEST KANSAS

CITY           SKY/WX    TMP DP  RH WIND       PRES   REMARKS
GOODLAND       CLEAR     26  15  63 S15       29.81F WCI  14
HAYS           CLEAR     23  10  57 CALM      29.92F
HILL CITY      CLEAR     19   8  62 CALM      29.90F
RUSSELL        CLEAR     25  16  68 SE10      29.91F WCI  15
$$

KSZ061>065-074>080-084>089-271000-
SOUTHWEST KANSAS

CITY           SKY/WX    TMP DP  RH WIND       PRES   REMARKS
DODGE CITY     CLEAR     26  20  77 SE9       29.89F
ELKHART          N/A     23  11  60 S9          N/A
GARDEN CITY    CLOUDY    23  16  74 SE7       29.86F
GREAT BEND     PTCLDY    28  21  75 SE8       29.93F
LIBERAL        CLEAR     27  16  63 SE8       29.86S
PRATT          PTCLDY    28  20  73 E6        29.92F
$$

KSZ066>073-081>083-090>101-271000-
SOUTHEAST KANSAS

CITY           SKY/WX    TMP DP  RH WIND       PRES   REMARKS
CHANUTE        CLEAR     26  23  88 CALM      30.00S FOG
COFFEYVILLE    CLEAR     30  28  92 NE5       29.99F
HUTCHINSON     PTCLDY    33  25  72 E7        29.94F
MEDICINE LODGE   N/A     34  27  75 E7        29.93S
NEWTON         PTCLDY    28  25  88 E8        29.96F
PARSONS        CLEAR     32  30  92 E5        30.00F
WICHITA INTL   PTCLDY    33  27  78 E5        29.95F
WICHITA JABRA  CLEAR     31  27  85 NE5       29.95F
WICHITA MCCONL CLEAR     36  28  73 E9        29.94F
WINFIELD       CLEAR     37  30  75 E6        29.96F
$$

KSZ007>012-019>026-033>040-048>060-102>105-271000-
NORTHEAST KANSAS

CITY           SKY/WX    TMP DP  RH WIND       PRES   REMARKS
CONCORDIA      CLEAR     26  15  63 S7        29.95F
EMPORIA        PTCLDY    27  26  96 SE3       29.99S FOG
LAWRENCE       MOCLDY    23  21  92 CALM      30.02S FOG
MANHATTAN      CLEAR     24  20  84 CALM      30.00S
MARYSVILLE     CLEAR     30  21  69 SE6       29.97F
OLATHE IND     PTCLDY    31  31 100 SE7       30.02S FOG
OLATHE EXE     FOG       30  30 100 SE3       30.02S VSB 3/4
SALINA         CLEAR     29  21  72 CALM      29.97F
TOPEKA BILLARD FOG       28  28 100 CALM      30.02S VSB 1/4
TOPEKA FORBES  CLEAR     26  23  88 CALM      30.01S FOG
$$




USA.gov is the U.S. government's official web portal to all federal, state and local government web resources and services.